Regional Weather Roundup
Issued by NWS Sioux Falls, SD

Home | Current Version | Previous Version | Text Only | Print | Product List | Glossary On
Versions: 1 2 3 4 5 6 7 8 9 10 11 12 13 14 15 16 17 18 19 20 21 22 23 24 25 26 27 28 29 30 31 32 33 34 35 36 37 38 39 40 41 42 43 44 45 46 47 48 49 50
000
ASUS43 KFSD 241610
RWRFSD

WEATHER ROUNDUP FOR SE SOUTH DAKOTA/SW MINNESOTA/NW IOWA
NATIONAL WEATHER SERVICE SIOUX FALLS SD
1000 AM CST TUE JAN 24 2017

NOTE: "FAIR" INDICATES FEW OR NO CLOUDS BELOW 12,000 FEET WITH NO
SIGNIFICANT WEATHER AND OR OBSTRUCTIONS TO VISIBILITY.


SDZ038>040-050-052>070-241700-
SOUTHEAST SOUTH DAKOTA

CITY           SKY/WX    TMP DP  RH WIND       PRES   REMARKS
BROOKINGS      CLOUDY    29  27  92 E15       29.79S FOG     WCI  18
CHAMBERLAIN    LGT SNOW  32  32  99 E8        29.73S WCI  25
HURON          CLOUDY    31  29  92 E12       29.79F WCI  22
MADISON        CLOUDY    28  28 100 E15       29.77  FOG     WCI  17
MITCHELL       CLOUDY    33  30  88 E15       29.76F WCI  23
SIOUX FALLS    CLOUDY    31  29  92 E16       29.78R WCI  20
WINNER         LGT SNOW  30  28  92 E10       29.71R FOG     WCI  21
YANKTON        CLOUDY    30  27  86 E14       29.74S WCI  20
$$

MNZ071-072-080-081-089-090-097-098-241700-
SOUTHWEST MINNESOTA

CITY           SKY/WX    TMP DP  RH WIND       PRES   REMARKS
FAIRMONT       CLOUDY    31  28  89 E9        29.85S WCI  23
JACKSON        CLOUDY    30  27  86 E12       29.83S WCI  21
LUVERNE        CLOUDY    30  28  93 E15G22    29.78F WCI  19
MARSHALL       CLOUDY    30  27  88 E13       29.84F WCI  20
MONTEVIDEO     CLOUDY    30  27  86 E7        29.88F WCI  23
PIPESTONE      CLOUDY    30  28  93 E15       29.77S FOG     WCI  19
REDWOOD FALLS  CLOUDY    31  26  82 E8        29.86F WCI  23
TRACY          CLOUDY    31  29  94 E9        29.84S FOG     WCI  22
WINDOM         CLOUDY    30  28  93 NE13      29.82F WCI  20
WORTHINGTON    CLOUDY    29  28  96 E16       29.80S WCI  17
$$

IAZ001>003-012>014-020>022-031-032-NEZ013-014-SDZ071-241700-
NORTHWEST IOWA

CITY           SKY/WX    TMP DP  RH WIND       PRES   REMARKS
CHEROKEE       CLOUDY    31  30  96 E15       29.78R WCI  20
DENISON        LGT SNOW  30  30 100 E17G25    29.73F WCI  18
ESTHERVILLE    CLOUDY    29  28  96 E16       29.81F WCI  17
LE MARS        CLOUDY    32  28  86 E13G21    29.79R WCI  22
ORANGE CITY    CLOUDY    30  28  93 E14G20    29.76R WCI  20
SHELDON        CLOUDY    30  32 100 E17       29.74F WCI  18
SIOUX CITY     CLOUDY    33  29  85 SE13      29.76S WCI  24
SPENCER        CLOUDY    31  29  92 E20       29.79F WCI  19
STORM LAKE     CLOUDY    30  30 100 E16G22    29.77S FOG     WCI  19
$$

ABBREVIATIONS USED IN REMARKS
   TC - TEMPERATURE IN CELSIUS
  WCI - WIND CHILL INDEX
   HX - HEAT INDEX
  VSB - VISIBILITY




USA.gov is the U.S. government's official web portal to all federal, state and local government web resources and services.